• In Portugal
  • List of Countries
  • For 7 days
  • Water Temperature
  • Satellite Maps
  • Weather Map
  • Weather Widgets
  • user-avatar
    Login

    Hourly Weather Resht

    Today, 21 November, Tuesday

    Time Temperature Precipitation Wind Pressure Humidity
    00:00 +22°C° 0.1 mm 3 mps 760 mmHg 40%
    01:00 +22°C° 0.1 mm 3 mps 760 mmHg 40%
    02:00 +21°C° 0.1 mm 3 mps 760 mmHg 40%
    03:00 +22°C° 0 mm 4 mps 759 mmHg 41%
    04:00 +22°C° 0.3 mm 4 mps 759 mmHg 40%
    05:00 +21°C° 0.3 mm 4 mps 759 mmHg 40%
    06:00 +21°C° 0.3 mm 4 mps 759 mmHg 39%
    07:00 +22°C° 0 mm 4 mps 759 mmHg 38%
    08:00 +23°C° 0 mm 5 mps 759 mmHg 36%
    09:00 +25°C° 0 mm 5 mps 759 mmHg 34%
    10:00 +26°C° 0 mm 5 mps 758 mmHg 32%
    11:00 +27°C° 0 mm 5 mps 758 mmHg 30%
    12:00 +28°C° 0 mm 5 mps 757 mmHg 28%
    13:00 +28°C° 0 mm 5 mps 756 mmHg 28%
    14:00 +27°C° 0 mm 5 mps 756 mmHg 29%
    15:00 +27°C° 0 mm 5 mps 756 mmHg 30%
    16:00 +26°C° 0 mm 5 mps 756 mmHg 31%
    17:00 +25°C° 0 mm 5 mps 756 mmHg 32%
    18:00 +23°C° 0 mm 4 mps 756 mmHg 33%
    19:00 +23°C° 0 mm 5 mps 755 mmHg 34%
    20:00 +22°C° 0 mm 5 mps 755 mmHg 36%
    21:00 +22°C° 0 mm 5 mps 755 mmHg 37%
    22:00 +22°C° 0 mm 5 mps 755 mmHg 38%
    23:00 +21°C° 0 mm 5 mps 754 mmHg 39%

    Tomorrow, 22 November, Wednesday

    Time Temperature Precipitation Wind Pressure Humidity
    00:00 +21°C° 0 mm 5 mps 754 mmHg 40%
    01:00 +21°C° 0 mm 6 mps 754 mmHg 41%
    02:00 +21°C° 0 mm 6 mps 754 mmHg 43%
    03:00 +20°C° 0 mm 6 mps 754 mmHg 45%
    04:00 +20°C° 0 mm 5 mps 754 mmHg 45%
    05:00 +20°C° 0 mm 5 mps 754 mmHg 45%
    06:00 +20°C° 0 mm 5 mps 754 mmHg 46%
    07:00 +21°C° 0.1 mm 5 mps 754 mmHg 44%
    08:00 +22°C° 0.1 mm 5 mps 754 mmHg 43%
    09:00 +23°C° 0.1 mm 5 mps 755 mmHg 41%
    10:00 +23°C° 0 mm 5 mps 754 mmHg 39%
    11:00 +25°C° 0 mm 5 mps 754 mmHg 38%
    12:00 +26°C° 0 mm 5 mps 754 mmHg 36%
    13:00 +25°C° 0.2 mm 5 mps 754 mmHg 42%
    14:00 +23°C° 0.2 mm 4 mps 754 mmHg 48%
    15:00 +22°C° 0.2 mm 4 mps 755 mmHg 54%
    16:00 +20°C° 0.4 mm 4 mps 755 mmHg 65%
    17:00 +19°C° 0.4 mm 3 mps 756 mmHg 76%
    18:00 +17°C° 0.4 mm 3 mps 756 mmHg 87%
    19:00 +17°C° 1 mm 3 mps 757 mmHg 87%
    20:00 +17°C° 1 mm 4 mps 757 mmHg 88%
    21:00 +17°C° 1 mm 4 mps 757 mmHg 89%
    22:00 +15°C° 1.4 mm 4 mps 757 mmHg 89%
    23:00 +16°C° 1.4 mm 3 mps 757 mmHg 90%

    Day after tomorrow, 23 November, Thursday

    Time Temperature Precipitation Wind Pressure Humidity
    00:00 +16°C° 1.4 mm 3 mps 757 mmHg 90%
    01:00 +16°C° 1 mm 3 mps 757 mmHg 90%
    02:00 +14°C° 1 mm 3 mps 757 mmHg 91%
    03:00 +14°C° 1 mm 3 mps 758 mmHg 91%
    04:00 +14°C° 1.6 mm 3 mps 758 mmHg 90%
    05:00 +14°C° 1.6 mm 3 mps 758 mmHg 89%
    06:00 +14°C° 1.6 mm 3 mps 758 mmHg 88%
    07:00 +14°C° 1.9 mm 3 mps 758 mmHg 82%
    08:00 +16°C° 1.9 mm 3 mps 759 mmHg 76%
    09:00 +17°C° 1.9 mm 3 mps 759 mmHg 70%
    10:00 +17°C° 1.2 mm 3 mps 759 mmHg 68%
    11:00 +17°C° 1.2 mm 3 mps 759 mmHg 66%
    12:00 +17°C° 1.2 mm 3 mps 759 mmHg 64%
    13:00 +17°C° 0.4 mm 3 mps 759 mmHg 67%
    14:00 +16°C° 0.4 mm 3 mps 759 mmHg 70%
    15:00 +16°C° 0.4 mm 2 mps 760 mmHg 73%
    16:00 +15°C° 0.1 mm 2 mps 760 mmHg 78%
    17:00 +15°C° 0.1 mm 2 mps 760 mmHg 82%
    18:00 +14°C° 0.1 mm 1 mps 761 mmHg 86%
    19:00 +14°C° 0 mm 1 mps 761 mmHg 85%
    20:00 +14°C° 0 mm 1 mps 761 mmHg 85%
    21:00 +13°C° 0 mm 1 mps 761 mmHg 84%
    22:00 +13°C° 0 mm 1 mps 761 mmHg 80%
    23:00 +13°C° 0 mm 2 mps 761 mmHg 77%

    24 November, Friday

    Time Temperature Precipitation Wind Pressure Humidity
    00:00 +13°C° 0 mm 2 mps 761 mmHg 74%
    01:00 +13°C° 0.1 mm 2 mps 761 mmHg 70%
    02:00 +13°C° 0.1 mm 2 mps 761 mmHg 66%
    03:00 +13°C° 0.1 mm 2 mps 761 mmHg 63%
    04:00 +13°C° 0.4 mm 2 mps 761 mmHg 60%
    05:00 +13°C° 0.4 mm 2 mps 761 mmHg 57%
    06:00 +13°C° 0.4 mm 2 mps 761 mmHg 54%
    07:00 +13°C° 0.5 mm 3 mps 762 mmHg 56%
    08:00 +13°C° 0.5 mm 4 mps 762 mmHg 58%
    09:00 +14°C° 0.5 mm 5 mps 762 mmHg 60%
    10:00 +13°C° 0.2 mm 5 mps 762 mmHg 65%
    11:00 +13°C° 0.2 mm 5 mps 762 mmHg 69%
    12:00 +13°C° 0.2 mm 5 mps 762 mmHg 73%
    13:00 +12°C° 0.2 mm 5 mps 762 mmHg 76%
    14:00 +12°C° 0.2 mm 4 mps 762 mmHg 78%
    15:00 +11°C° 0.2 mm 4 mps 762 mmHg 81%
    16:00 +11°C° 0.1 mm 4 mps 763 mmHg 82%
    17:00 +10°C° 0.1 mm 4 mps 763 mmHg 83%
    18:00 +10°C° 0.1 mm 3 mps 764 mmHg 84%
    19:00 +10°C° 0.1 mm 3 mps 764 mmHg 83%
    20:00 +10°C° 0.1 mm 3 mps 765 mmHg 83%
    21:00 +10°C° 0.1 mm 3 mps 765 mmHg 83%
    22:00 +9°C° 0 mm 2 mps 765 mmHg 83%
    23:00 +9°C° 0 mm 2 mps 765 mmHg 83%

    25 November, Saturday

    Time Temperature Precipitation Wind Pressure Humidity
    00:00 +9°C° 0 mm 2 mps 766 mmHg 83%
    01:00 +9°C° 0 mm 2 mps 766 mmHg 81%
    02:00 +8°C° 0 mm 2 mps 766 mmHg 80%
    03:00 +8°C° 0 mm 2 mps 766 mmHg 79%
    04:00 +8°C° 0 mm 2 mps 767 mmHg 78%
    05:00 +8°C° 0 mm 2 mps 767 mmHg 77%
    06:00 +8°C° 0 mm 2 mps 768 mmHg 76%
    07:00 +9°C° 0.2 mm 2 mps 768 mmHg 70%
    08:00 +10°C° 0.2 mm 2 mps 768 mmHg 63%
    09:00 +13°C° 0.2 mm 2 mps 768 mmHg 57%
    10:00 +12°C° 0.5 mm 3 mps 768 mmHg 55%
    11:00 +13°C° 0.5 mm 3 mps 768 mmHg 54%
    12:00 +13°C° 0.5 mm 4 mps 768 mmHg 52%
    13:00 +12°C° 0.8 mm 4 mps 768 mmHg 59%
    14:00 +11°C° 0.8 mm 4 mps 769 mmHg 67%
    15:00 +10°C° 0.8 mm 4 mps 769 mmHg 74%
    16:00 +10°C° 1.2 mm 4 mps 770 mmHg 78%
    17:00 +9°C° 1.2 mm 3 mps 770 mmHg 81%
    18:00 +9°C° 1.2 mm 3 mps 771 mmHg 85%
    19:00 +9°C° 1.1 mm 2 mps 772 mmHg 85%
    20:00 +8°C° 1.1 mm 2 mps 772 mmHg 85%
    21:00 +8°C° 1.1 mm 2 mps 773 mmHg 85%
    22:00 +8°C° 0.5 mm 2 mps 773 mmHg 84%
    23:00 +8°C° 0.5 mm 2 mps 774 mmHg 84%

    26 November, Sunday

    Time Temperature Precipitation Wind Pressure Humidity
    00:00 +8°C° 0.5 mm 2 mps 774 mmHg 83%
    01:00 +7°C° 0.1 mm 2 mps 774 mmHg 83%
    02:00 +7°C° 0.1 mm 2 mps 774 mmHg 82%
    03:00 +7°C° 0.1 mm 2 mps 775 mmHg 81%
    04:00 +7°C° 0 mm 2 mps 775 mmHg 80%
    05:00 +7°C° 0 mm 2 mps 775 mmHg 79%
    06:00 +6°C° 0 mm 2 mps 775 mmHg 78%
    07:00 +7°C° 0 mm 2 mps 775 mmHg 73%
    08:00 +9°C° 0 mm 2 mps 775 mmHg 68%
    09:00 +10°C° 0 mm 2 mps 775 mmHg 63%
    10:00 +11°C° 0 mm 1 mps 775 mmHg 61%
    11:00 +12°C° 0 mm 1 mps 774 mmHg 59%
    12:00 +13°C° 0 mm 1 mps 773 mmHg 57%
    13:00 +12°C° 0 mm 1 mps 773 mmHg 60%
    14:00 +12°C° 0 mm 2 mps 772 mmHg 62%
    15:00 +12°C° 0 mm 2 mps 772 mmHg 65%
    16:00 +10°C° 0 mm 2 mps 772 mmHg 70%
    17:00 +9°C° 0 mm 2 mps 772 mmHg 75%
    18:00 +8°C° 0 mm 2 mps 772 mmHg 80%
    19:00 +8°C° 0 mm 2 mps 772 mmHg 79%
    20:00 +8°C° 0 mm 2 mps 772 mmHg 78%
    21:00 +8°C° 0 mm 2 mps 772 mmHg 77%
    22:00 +8°C° 0 mm 2 mps 772 mmHg 74%
    23:00 +9°C° 0 mm 1 mps 771 mmHg 71%
    Show more